Weather History for KPVD - July, 2013

Change the Weather History Date:

Wednesday, July 10, 2013

  Actual Average Record
Temperature  
Mean Temperature 79 °F 73 °F  
Max Temperature 85 °F 83 °F 100 °F (1993)
Min Temperature 73 °F 64 °F 52 °F (1953)
Degree Days  
Heating Degree Days 0 0  
Month to date heating degree days 0 0  
Since 1 June heating degree days 24 43  
Since 1 July heating degree days 0 0  
Cooling Degree Days 14 8  
Month to date cooling degree days 153 78  
Year to date cooling degree days 361 236  
Since 1 June cooling degree days 317 210  
Growing Degree Days 28 (Base 50)    
Moisture  
Dew Point 72 °F    
Average Humidity 79    
Maximum Humidity 93    
Minimum Humidity 65    
Precipitation  
Precipitation T in 0.10 in 2.36 in (1921)
Month to date precipitation 0.30 0.92  
Year to date precipitation 24.98 24.63  
Snow  
Snow 0.00 in 0.00 in 0.00 in (2002)
Month to date snowfall 0.0 0.0  
Since 1 June snowfall 0.0 0.0  
Since 1 July snowfall 0.0 0.0  
Snow Depth 0.00 in    
Sea Level Pressure  
Sea Level Pressure 29.94 in    
Wind  
Wind Speed 8 mph (South)    
Max Wind Speed 20 mph    
Max Gust Speed 24 mph    
Visibility 7 miles    
Events Rain    
T = Trace of Precipitation, MM = Missing Value Source: NWS Daily Summary

Daily Weather History Graph

Daily Weather History Graph

Search for Another Location

Airport or City:

Trip Planner

Search our weather history database for the weather conditions in past years. The results will help you decide how hot, cold, wet, or windy it might be!

Date:

Astronomy

Jul. 10, 2013 Rise Set
Actual Time 5:20 AM EDT 8:21 PM EDT
Civil Twilight 4:47 AM EDT 8:54 PM EDT
Nautical Twilight 4:04 AM EDT 9:37 PM EDT
Astronomical Twilight 3:14 AM EDT 10:27 PM EDT
Moon 7:41 AM EDT (7/10) 9:26 PM EDT (7/10)
Length of Visible Light 16h 07m
Length of Day
15h 00m
Waxing Crescent, 5% of the Moon is Illuminated
Jul 10
Waxing Crescent
Jul 15
First Quarter
Jul 22
Full
Jul 29
Last Quarter
Aug 6
New

Hourly Weather History & Observations

Time (EDT) Temp. Heat Index Dew Point Humidity Pressure Visibility Wind Dir Wind Speed Gust Speed Precip Events Conditions
12:51 AM 73.0 °F - 71.1 °F 93% 30.05 in 5.0 mi ESE 3.5 mph - N/A   Overcast
1:13 AM 73.4 °F - 71.6 °F 94% 30.04 in 5.0 mi East 3.5 mph - N/A   Overcast
1:51 AM 73.0 °F - 71.1 °F 93% 30.04 in 5.0 mi ESE 3.5 mph - N/A   Overcast
2:07 AM 73.4 °F - 71.6 °F 94% 30.03 in 6.0 mi ESE 5.8 mph - N/A   Overcast
2:27 AM 73.4 °F - 71.6 °F 94% 30.03 in 5.0 mi ESE 3.5 mph - N/A   Overcast
2:51 AM 73.0 °F - 71.1 °F 93% 30.02 in 5.0 mi ESE 3.5 mph - N/A   Overcast
3:37 AM 73.4 °F - 71.6 °F 94% 30.01 in 7.0 mi South 3.5 mph - N/A   Overcast
3:51 AM 73.9 °F - 71.1 °F 91% 30.01 in 7.0 mi Calm Calm - N/A   Overcast
4:51 AM 73.9 °F - 71.1 °F 91% 30.00 in 6.0 mi Calm Calm - N/A   Overcast
5:51 AM 73.0 °F - 71.1 °F 93% 30.00 in 3.0 mi NE 3.5 mph - N/A   Overcast
6:51 AM 73.9 °F - 71.1 °F 91% 30.01 in 3.0 mi South 5.8 mph - N/A   Overcast
7:06 AM 73.4 °F - 71.6 °F 94% 30.00 in 3.0 mi SSE 5.8 mph - N/A   Overcast
7:51 AM 75.0 °F - 71.1 °F 87% 30.00 in 4.0 mi SSE 4.6 mph - N/A   Overcast
8:08 AM 73.4 °F - 71.6 °F 94% 30.00 in 5.0 mi SSW 5.8 mph - N/A   Overcast
8:46 AM 75.2 °F - 71.6 °F 89% 29.99 in 5.0 mi SSW 4.6 mph - 0.00 in   Overcast
8:51 AM 75.0 °F - 71.1 °F 87% 29.99 in 5.0 mi SW 4.6 mph - 0.00 in   Overcast
9:10 AM 75.2 °F - 71.6 °F 89% 29.99 in 5.0 mi SSW 5.8 mph - 0.00 in Rain Light Rain
9:37 AM 75.2 °F - 71.6 °F 89% 29.98 in 10.0 mi South 5.8 mph - 0.00 in   Mostly Cloudy
9:46 AM 75.2 °F - 71.6 °F 89% 29.98 in 10.0 mi South 5.8 mph - 0.00 in   Mostly Cloudy
9:51 AM 77.0 °F - 72.0 °F 84% 29.98 in 10.0 mi SE 6.9 mph - 0.00 in   Mostly Cloudy
10:26 AM 78.8 °F - 71.6 °F 78% 29.97 in 10.0 mi South 6.9 mph - N/A   Mostly Cloudy
10:38 AM 78.8 °F - 71.6 °F 78% 29.97 in 10.0 mi South 6.9 mph - N/A   Scattered Clouds
10:51 AM 80.1 °F 83.8 °F 72.0 °F 76% 29.96 in 10.0 mi South 6.9 mph - N/A   Scattered Clouds
11:51 AM 82.0 °F 87.4 °F 73.0 °F 74% 29.95 in 10.0 mi Variable 6.9 mph - N/A   Scattered Clouds
12:51 PM 84.0 °F 89.0 °F 71.1 °F 65% 29.94 in 10.0 mi South 11.5 mph - N/A   Mostly Cloudy
1:29 PM 84.2 °F 89.6 °F 71.6 °F 66% 29.92 in 10.0 mi South 15.0 mph - N/A   Mostly Cloudy
1:37 PM 84.2 °F 89.6 °F 71.6 °F 66% 29.92 in 10.0 mi South 15.0 mph - N/A   Mostly Cloudy
1:44 PM 84.2 °F 89.6 °F 71.6 °F 66% 29.92 in 10.0 mi South 13.8 mph - N/A   Mostly Cloudy
1:51 PM 84.0 °F 89.0 °F 71.1 °F 65% 29.91 in 10.0 mi South 16.1 mph 20.7 mph N/A   Mostly Cloudy
2:10 PM 82.4 °F 87.2 °F 71.6 °F 70% 29.91 in 10.0 mi South 13.8 mph 17.3 mph N/A   Mostly Cloudy
2:51 PM 82.0 °F 87.4 °F 73.0 °F 74% 29.90 in 10.0 mi SSE 11.5 mph - N/A   Mostly Cloudy
3:51 PM 80.1 °F 84.2 °F 73.0 °F 79% 29.88 in 9.0 mi South 17.3 mph 24.2 mph N/A   Overcast
4:07 PM 78.8 °F - 73.4 °F 83% 29.88 in 8.0 mi South 17.3 mph 23.0 mph N/A   Overcast
4:51 PM 77.0 °F - 73.0 °F 88% 29.86 in 7.0 mi South 12.7 mph - N/A   Overcast
5:51 PM 75.9 °F - 73.0 °F 91% 29.84 in 5.0 mi SSW 12.7 mph - N/A   Overcast
6:51 PM 77.0 °F - 73.0 °F 88% 29.83 in 6.0 mi South 10.4 mph - N/A   Overcast
7:41 PM 77.0 °F - 71.6 °F 83% 29.84 in 6.0 mi SSW 10.4 mph - N/A   Haze
7:51 PM 75.9 °F - 72.0 °F 87% 29.83 in 6.0 mi SSW 9.2 mph - N/A   Mostly Cloudy
8:49 PM 75.2 °F - 71.6 °F 89% 29.85 in 8.0 mi SSW 6.9 mph - N/A   Mostly Cloudy
8:51 PM 75.0 °F - 71.1 °F 87% 29.85 in 8.0 mi SSW 6.9 mph - N/A   Mostly Cloudy
9:51 PM 75.0 °F - 71.1 °F 87% 29.86 in 9.0 mi SSW 9.2 mph - N/A   Mostly Cloudy
10:51 PM 73.9 °F - 71.1 °F 91% 29.85 in 10.0 mi SSW 8.1 mph - N/A   Overcast
11:51 PM 75.0 °F - 71.1 °F 87% 29.83 in 9.0 mi SW 8.1 mph - N/A   Overcast